• In Kazakhstan
  • List of Countries
  • For 7 days
  • Water Temperature
  • Weather Map
  • News
  • Weather Widgets
  • user-avatar
    Login

    Hourly Weather Vatican

    Today, 6 June, Saturday

    Time Temperature Precipitation Wind Pressure Humidity
    00:00 +20°C° 0 mm 1 mps 752 mmHg 73%
    01:00 +20°C° 0 mm 1 mps 753 mmHg 74%
    02:00 +19°C° 0 mm 2 mps 753 mmHg 75%
    03:00 +18°C° 0 mm 2 mps 753 mmHg 76%
    04:00 +18°C° 0 mm 3 mps 753 mmHg 77%
    05:00 +19°C° 0 mm 2 mps 753 mmHg 73%
    06:00 +20°C° 0 mm 2 mps 754 mmHg 69%
    07:00 +20°C° 0 mm 2 mps 754 mmHg 64%
    08:00 +23°C° 0 mm 2 mps 754 mmHg 59%
    09:00 +24°C° 0 mm 2 mps 754 mmHg 54%
    10:00 +26°C° 0 mm 2 mps 754 mmHg 49%
    11:00 +26°C° 0 mm 3 mps 754 mmHg 49%
    12:00 +26°C° 0 mm 4 mps 754 mmHg 49%
    13:00 +27°C° 0 mm 5 mps 754 mmHg 49%
    14:00 +27°C° 0 mm 5 mps 754 mmHg 51%
    15:00 +26°C° 0 mm 5 mps 754 mmHg 54%
    16:00 +26°C° 0 mm 5 mps 754 mmHg 56%
    17:00 +25°C° 0 mm 5 mps 754 mmHg 59%
    18:00 +23°C° 0 mm 4 mps 754 mmHg 62%
    19:00 +22°C° 0 mm 3 mps 754 mmHg 65%
    20:00 +22°C° 0 mm 3 mps 755 mmHg 69%
    21:00 +21°C° 0 mm 3 mps 755 mmHg 73%
    22:00 +20°C° 0 mm 3 mps 755 mmHg 77%
    23:00 +20°C° 0 mm 3 mps 755 mmHg 78%

    Tomorrow, 7 June, Sunday

    Time Temperature Precipitation Wind Pressure Humidity
    00:00 +20°C° 0 mm 3 mps 755 mmHg 79%
    01:00 +20°C° 0 mm 4 mps 755 mmHg 80%
    02:00 +20°C° 0 mm 3 mps 755 mmHg 81%
    03:00 +19°C° 0 mm 3 mps 755 mmHg 82%
    04:00 +19°C° 0 mm 3 mps 755 mmHg 83%
    05:00 +20°C° 0 mm 4 mps 755 mmHg 79%
    06:00 +21°C° 0 mm 5 mps 755 mmHg 75%
    07:00 +21°C° 0 mm 6 mps 755 mmHg 71%
    08:00 +22°C° 0 mm 6 mps 755 mmHg 68%
    09:00 +23°C° 0 mm 6 mps 755 mmHg 65%
    10:00 +24°C° 0 mm 6 mps 756 mmHg 62%
    11:00 +24°C° 0 mm 7 mps 756 mmHg 60%
    12:00 +26°C° 0 mm 7 mps 756 mmHg 58%
    13:00 +26°C° 0 mm 7 mps 755 mmHg 56%
    14:00 +26°C° 0 mm 7 mps 755 mmHg 58%
    15:00 +24°C° 0 mm 7 mps 755 mmHg 60%
    16:00 +24°C° 0 mm 7 mps 755 mmHg 62%
    17:00 +24°C° 0 mm 7 mps 755 mmHg 67%
    18:00 +23°C° 0 mm 6 mps 755 mmHg 72%
    19:00 +22°C° 0 mm 6 mps 755 mmHg 77%
    20:00 +22°C° 0.3 mm 6 mps 755 mmHg 79%
    21:00 +22°C° 0.3 mm 6 mps 755 mmHg 80%
    22:00 +21°C° 0.3 mm 5 mps 756 mmHg 81%
    23:00 +21°C° 0.6 mm 5 mps 755 mmHg 81%

    Day after tomorrow, 8 June, Monday

    Time Temperature Precipitation Wind Pressure Humidity
    00:00 +21°C° 0.6 mm 5 mps 755 mmHg 81%
    01:00 +21°C° 0.6 mm 5 mps 755 mmHg 81%
    02:00 +21°C° 0.7 mm 5 mps 755 mmHg 81%
    03:00 +21°C° 0.7 mm 5 mps 755 mmHg 82%
    04:00 +20°C° 0.7 mm 4 mps 755 mmHg 82%
    05:00 +21°C° 1 mm 4 mps 755 mmHg 79%
    06:00 +21°C° 1 mm 4 mps 755 mmHg 76%
    07:00 +22°C° 1 mm 4 mps 755 mmHg 72%
    08:00 +23°C° 0.5 mm 5 mps 755 mmHg 69%
    09:00 +23°C° 0.5 mm 5 mps 755 mmHg 66%
    10:00 +25°C° 0.5 mm 5 mps 755 mmHg 63%
    11:00 +25°C° 0.1 mm 5 mps 755 mmHg 62%
    12:00 +26°C° 0.1 mm 5 mps 755 mmHg 60%
    13:00 +26°C° 0.1 mm 5 mps 755 mmHg 59%
    14:00 +26°C° 0 mm 5 mps 755 mmHg 60%
    15:00 +26°C° 0 mm 4 mps 754 mmHg 61%
    16:00 +26°C° 0 mm 4 mps 754 mmHg 61%
    17:00 +25°C° 0 mm 4 mps 754 mmHg 66%
    18:00 +24°C° 0 mm 3 mps 755 mmHg 70%
    19:00 +22°C° 0 mm 3 mps 755 mmHg 74%
    20:00 +22°C° 0.1 mm 3 mps 755 mmHg 77%
    21:00 +23°C° 0.1 mm 2 mps 755 mmHg 79%
    22:00 +22°C° 0.1 mm 1 mps 756 mmHg 81%
    23:00 +21°C° 0.2 mm 2 mps 755 mmHg 81%

    9 June, Tuesday

    Time Temperature Precipitation Wind Pressure Humidity
    00:00 +21°C° 0.2 mm 2 mps 755 mmHg 81%
    01:00 +21°C° 0.2 mm 2 mps 755 mmHg 81%
    02:00 +20°C° 0.2 mm 2 mps 755 mmHg 82%
    03:00 +20°C° 0.2 mm 2 mps 755 mmHg 82%
    04:00 +20°C° 0.2 mm 2 mps 755 mmHg 82%
    05:00 +20°C° 0.2 mm 2 mps 755 mmHg 78%
    06:00 +21°C° 0.2 mm 2 mps 755 mmHg 75%
    07:00 +22°C° 0.2 mm 3 mps 755 mmHg 71%
    08:00 +24°C° 0.4 mm 3 mps 755 mmHg 68%
    09:00 +25°C° 0.4 mm 4 mps 755 mmHg 65%
    10:00 +25°C° 0.4 mm 4 mps 755 mmHg 61%
    11:00 +26°C° 0.3 mm 4 mps 755 mmHg 61%
    12:00 +26°C° 0.3 mm 5 mps 756 mmHg 60%
    13:00 +26°C° 0.3 mm 5 mps 756 mmHg 59%
    14:00 +26°C° 0 mm 4 mps 756 mmHg 59%
    15:00 +26°C° 0 mm 4 mps 755 mmHg 59%
    16:00 +26°C° 0 mm 4 mps 755 mmHg 58%
    17:00 +25°C° 0 mm 4 mps 755 mmHg 62%
    18:00 +23°C° 0 mm 4 mps 756 mmHg 65%
    19:00 +22°C° 0 mm 4 mps 756 mmHg 69%
    20:00 +22°C° 0 mm 5 mps 756 mmHg 71%
    21:00 +21°C° 0 mm 5 mps 757 mmHg 74%
    22:00 +21°C° 0 mm 5 mps 757 mmHg 76%
    23:00 +20°C° 0 mm 6 mps 757 mmHg 77%

    10 June, Wednesday

    Time Temperature Precipitation Wind Pressure Humidity
    00:00 +20°C° 0 mm 6 mps 757 mmHg 77%
    01:00 +20°C° 0 mm 6 mps 757 mmHg 78%
    02:00 +20°C° 0 mm 6 mps 757 mmHg 78%
    03:00 +19°C° 0 mm 6 mps 756 mmHg 79%
    04:00 +19°C° 0 mm 6 mps 756 mmHg 79%
    05:00 +20°C° 0 mm 6 mps 756 mmHg 77%
    06:00 +20°C° 0 mm 6 mps 756 mmHg 74%
    07:00 +21°C° 0 mm 5 mps 756 mmHg 72%
    08:00 +21°C° 0 mm 5 mps 756 mmHg 69%
    09:00 +22°C° 0 mm 6 mps 756 mmHg 66%
    10:00 +22°C° 0 mm 6 mps 756 mmHg 63%
    11:00 +23°C° 0 mm 6 mps 756 mmHg 62%
    12:00 +23°C° 0 mm 6 mps 756 mmHg 61%
    13:00 +23°C° 0 mm 7 mps 756 mmHg 60%
    14:00 +23°C° 0.1 mm 7 mps 756 mmHg 61%
    15:00 +23°C° 0.1 mm 7 mps 756 mmHg 62%
    16:00 +23°C° 0.1 mm 7 mps 756 mmHg 63%
    17:00 +22°C° 0.1 mm 6 mps 756 mmHg 65%
    18:00 +22°C° 0.1 mm 6 mps 756 mmHg 67%
    19:00 +21°C° 0.1 mm 5 mps 756 mmHg 68%
    20:00 +21°C° 0 mm 6 mps 756 mmHg 69%
    21:00 +21°C° 0 mm 6 mps 757 mmHg 70%
    22:00 +20°C° 0 mm 6 mps 757 mmHg 70%
    23:00 +20°C° 0 mm 6 mps 757 mmHg 72%

    11 June, Thursday

    Time Temperature Precipitation Wind Pressure Humidity
    00:00 +20°C° 0 mm 6 mps 756 mmHg 74%
    01:00 +19°C° 0 mm 6 mps 756 mmHg 75%
    02:00 +19°C° 0.2 mm 6 mps 756 mmHg 76%
    03:00 +19°C° 0.2 mm 6 mps 756 mmHg 76%
    04:00 +19°C° 0.2 mm 6 mps 755 mmHg 76%
    05:00 +19°C° 1 mm 6 mps 755 mmHg 75%
    06:00 +20°C° 1 mm 6 mps 755 mmHg 73%
    07:00 +20°C° 1 mm 6 mps 755 mmHg 71%
    08:00 +21°C° 1.7 mm 7 mps 755 mmHg 70%
    09:00 +21°C° 1.7 mm 7 mps 755 mmHg 69%
    10:00 +22°C° 1.7 mm 8 mps 755 mmHg 67%
    11:00 +22°C° 1.4 mm 8 mps 755 mmHg 68%
    12:00 +22°C° 1.4 mm 9 mps 754 mmHg 68%
    13:00 +22°C° 1.4 mm 9 mps 754 mmHg 69%
    14:00 +22°C° 0.8 mm 9 mps 754 mmHg 69%
    15:00 +22°C° 0.8 mm 8 mps 754 mmHg 69%
    16:00 +22°C° 0.8 mm 8 mps 753 mmHg 69%
    17:00 +21°C° 0.5 mm 7 mps 753 mmHg 70%
    18:00 +21°C° 0.5 mm 7 mps 753 mmHg 72%
    19:00 +21°C° 0.5 mm 6 mps 753 mmHg 74%
    20:00 +20°C° 0.2 mm 6 mps 753 mmHg 75%
    21:00 +20°C° 0.2 mm 5 mps 754 mmHg 76%
    22:00 +20°C° 0.2 mm 5 mps 754 mmHg 77%
    23:00 +20°C° 0.5 mm 5 mps 754 mmHg 77%
    Show more